Probability
0 0 0 0 0 0 0 0 0 0 0 0 0 0 0 0 0 0 0 0 0 0 0 0 0 0 0 0 0 0 0 0 0 0 0 0 0 0
0 0 0 0 0 0 0 0 0 0 0 0 0 0 0 0 0 0 0 0 0 0 0 0 0 0 0 0 0 0 0 0 0 0 0 0 0 0
0 0 0 0 0 0 0 0 0 0 0 0 0 0 0 0 0 0 0 0 0 0 0 0 0 0 0 0 0 0 0 0 0 0 0 0 0 0
0 0 0 0 0 0 0 0 0 0 0 0 0 0 0 0 0 0 0 0 0 0 0 0 0 0 0 0 0 0 0 0 0 0 0 0 0 0
0 0 0 0 0 0 0 0 0 0 0 0 0 0 0 0 0 0 0 0 0 0 0 0 0 0 0 0 0 0 0 0 0 0 0 0 0 0
0 0 0 0 0 0 0 0 0 0 0 0 0 0 0 0 0 0 0 0 0 0 0 0 0 0 0 0 0 0 0 0 0 0 0 0 0 0
0 0 0 0 0 0 0 0 0 0 0 0 0 0 0 0 0 0 0 0 0 0 0 0 0 0 0 0 0 0 0 0 0 0 0 0 0 0
0 0 0 0 0 0 0 0 0 0 0 0 0 0 0 0 0 0 0 0 0 0 0 0 0 0 0 0 0 0 0 0 0 0 0 0 0 0
0 0 0 0 0 0 0 0 0 0 0 0 0 0 0 0 0 0 0 0 0 0 0 0 0 0 0 0 0 0 0 0 0 0 0 0 0 0
0 0 0 0 0 0 0 0 0 0 0 0 0 0 0 0 0 0 0 0 0 0 0 0 0 0 0 0 0 0 0 0 0 0 0 0 0 0
0 0 0 0 0 0 0 0 0 0 0 0 0 0 0 0 0 0 0 0 0 0 0 0 0 0 0 0 0 0 0 0 0 0 0 0 0 0
0 0 0 0 0 0 0 0 0 0 0 0 0 0 0 0 0 0 0 0 0 0 0 0 0 0 0 0 0 0 0 0 0 0 0 0 0 0
0 0 0 0 0 0 0 0 0 0 0 0 0 0 0 0 0 0 0 0 0 0 0 0 0 0 0 0 0 0 0 0 0 0 0 0 0 0
0 0 0 0 0 0 0 0 0 0 0 0 0 0 0 0 0 0 0 0 0 0 0 0 0 0 0 0 0 0 0 0 0 0 0 0 0 0
0 0 0 0 0 0 0 0 0 0 0 0 0 0 0 0 0 0 0 0 0 0 0 0 0 0 0 0 0 0 0 0 0 0 0 0 0 0
0 0 0 0 0 0 0 0 0 0 0 0 0 0 0 0 0 0 0 0 0 0 0 0 0 0 0 0 0 0 0 0 0 0 0 0 0 0
0 0 0 0 0 0 0 0 0 0 0 0 0 0 0 0 0 0 0 0 0 0 0 0 0 0 0 0 0 0 0 0 0 0 0 0 0 0
0 0 0 0 0 0 0 0 0 0 0 0 0 0 0 0 0 0 0 0 0 0 0 0 0 0 0 0 0 0 0 0 0 0 0 0 0 0
0 0 0 0 0 0 0 0 0 0 0 0 0 0 0 0 0 0 0 0 0 0 0 0 0 0 0 0 0 0 0 0 0 0 0 0 0 0
0 0 0 0 0 0 0 0 0 0 0 0 0 0 0 0 0 0 0 0 0 0 0 0 0 0 0 0 0 0 0 0 0 0 0 0 0 0
0 0 0 0 0 0 0 0 0 0 0 0 0 0 0 0 0 0 0 0 0 0 0 0 0 0 0 0 0 0 0 0 0 0 0 0 0 0
0 0 0 0 0 0 0 0 0 0 0 0 0 0 0 0 0 0 0 0 0 0 0 0 0 0 0 0 0 0 0 0 0 0 0 0 0 0
0 0 0 0 0 0 0 0 0 0 0 0 0 0 0 0 0 0 0 0 0 0 0 0 0 0 0 0 0 0 0 0 0 0 0 0 0 0
Height
5720 5718 5716 5713 5710 5708 5705 5702 5700 5697 5695 5691 5687 5683 5679 5675 5671 5668 5665 5662 5659 5656 5652 5649 5646 5642 5639 5635 5631 5627 5624 5621 5619 5617 5615 5613 5612 5610
5712 5710 5708 5706 5703 5700 5697 5694 5691 5688 5686 5683 5679 5676 5672 5668 5665 5661 5658 5655 5652 5648 5645 5641 5638 5634 5630 5627 5623 5619 5616 5613 5610 5608 5606 5605 5603 5600
5704 5702 5700 5698 5695 5692 5689 5686 5683 5680 5678 5676 5672 5668 5665 5661 5658 5655 5652 5648 5645 5641 5637 5633 5630 5626 5623 5619 5615 5611 5608 5605 5602 5600 5598 5596 5593 5591
5696 5694 5692 5689 5687 5684 5681 5678 5676 5673 5670 5668 5665 5662 5658 5655 5652 5648 5645 5642 5638 5635 5631 5627 5623 5619 5615 5611 5607 5603 5600 5597 5595 5592 5590 5587 5584 5582
5688 5686 5684 5682 5679 5676 5673 5671 5668 5666 5663 5661 5658 5655 5652 5648 5645 5642 5639 5636 5632 5629 5625 5621 5617 5613 5608 5604 5601 5597 5593 5590 5588 5585 5582 5579 5576 5574
5680 5678 5676 5674 5671 5669 5666 5664 5661 5659 5656 5654 5651 5648 5645 5642 5639 5636 5634 5630 5627 5623 5619 5615 5611 5607 5603 5599 5595 5591 5588 5584 5581 5578 5574 5571 5569 5566
5672 5670 5668 5666 5663 5661 5659 5657 5655 5652 5650 5647 5644 5642 5639 5637 5634 5631 5628 5625 5621 5618 5614 5610 5606 5602 5597 5593 5589 5586 5582 5578 5575 5571 5568 5565 5562 5559
5664 5662 5661 5659 5656 5654 5652 5650 5648 5645 5643 5641 5638 5636 5633 5631 5628 5625 5622 5620 5617 5614 5609 5605 5601 5597 5592 5588 5584 5580 5577 5573 5569 5565 5561 5558 5555 5553
5656 5654 5653 5651 5650 5648 5645 5643 5641 5638 5636 5634 5632 5630 5627 5625 5622 5620 5617 5614 5610 5607 5604 5600 5596 5592 5587 5583 5579 5576 5572 5568 5564 5560 5556 5552 5549 5546
5648 5647 5646 5644 5642 5641 5639 5637 5634 5632 5630 5628 5626 5623 5621 5618 5616 5614 5612 5609 5605 5602 5598 5595 5591 5587 5583 5579 5575 5571 5567 5563 5559 5554 5551 5547 5543 5540
5640 5639 5638 5636 5635 5633 5631 5629 5627 5625 5623 5621 5619 5617 5615 5612 5611 5609 5606 5604 5601 5597 5594 5591 5587 5583 5579 5575 5571 5566 5562 5557 5553 5549 5545 5541 5537 5533
5632 5631 5630 5628 5627 5625 5624 5622 5620 5618 5616 5614 5612 5610 5609 5607 5605 5603 5601 5599 5596 5593 5589 5586 5582 5578 5575 5571 5566 5562 5557 5552 5548 5543 5539 5535 5531 5527
5623 5623 5622 5620 5619 5617 5616 5614 5613 5611 5609 5608 5606 5604 5603 5601 5599 5598 5596 5593 5591 5588 5585 5581 5577 5573 5569 5566 5562 5557 5552 5547 5543 5538 5533 5529 5525 5521
5615 5614 5613 5612 5611 5610 5608 5607 5606 5604 5603 5601 5600 5599 5597 5596 5594 5592 5590 5588 5586 5583 5580 5576 5573 5569 5565 5561 5557 5553 5548 5543 5538 5533 5528 5524 5520 5516
5606 5606 5605 5604 5603 5602 5601 5600 5599 5598 5597 5596 5594 5593 5591 5590 5588 5586 5585 5583 5580 5578 5575 5572 5568 5565 5561 5557 5553 5548 5544 5539 5533 5529 5524 5520 5515 5512
5597 5597 5597 5597 5596 5595 5594 5593 5592 5591 5590 5589 5588 5587 5585 5583 5582 5581 5579 5577 5575 5573 5570 5567 5564 5560 5557 5553 5548 5543 5539 5534 5529 5525 5520 5516 5511 5507
5589 5589 5590 5590 5589 5588 5588 5587 5586 5585 5584 5583 5581 5580 5579 5577 5576 5574 5573 5571 5570 5568 5565 5562 5559 5556 5553 5549 5545 5540 5535 5530 5525 5521 5516 5512 5508 5504
5581 5582 5582 5582 5582 5582 5581 5580 5579 5578 5577 5576 5575 5574 5573 5571 5569 5568 5567 5566 5564 5562 5560 5558 5555 5552 5549 5544 5541 5536 5531 5526 5521 5516 5512 5509 5505 5501
5573 5574 5574 5575 5575 5574 5574 5573 5573 5572 5570 5569 5568 5567 5566 5565 5563 5563 5562 5561 5559 5557 5555 5553 5551 5548 5545 5541 5536 5532 5527 5522 5517 5513 5509 5506 5502 5497
5566 5566 5567 5567 5567 5567 5567 5566 5565 5564 5563 5563 5562 5561 5560 5559 5558 5557 5557 5556 5554 5552 5550 5548 5546 5544 5541 5537 5533 5528 5523 5518 5514 5510 5506 5502 5499 5494
5558 5558 5559 5559 5560 5560 5560 5559 5558 5557 5557 5556 5556 5555 5555 5554 5553 5552 5552 5550 5549 5547 5546 5544 5541 5539 5536 5533 5529 5525 5519 5515 5510 5506 5503 5499 5496 5492
5550 5551 5551 5552 5552 5553 5552 5552 5552 5551 5551 5550 5550 5550 5549 5549 5548 5547 5546 5545 5544 5543 5541 5539 5536 5534 5532 5529 5525 5521 5516 5512 5507 5503 5499 5496 5493 5489
5542 5543 5544 5544 5545 5545 5545 5545 5545 5545 5545 5544 5544 5544 5544 5543 5543 5542 5541 5540 5539 5538 5536 5534 5532 5529 5527 5524 5521 5517 5513 5509 5505 5501 5497 5493 5490 5487
Wind_Speed
33 33 34 33 33 33 33 33 33 32 31 31 31 31 31 31 31 31 31 31 32 32 31 31 32 32 32 33 33 33 33 32 31 31 32 33 34 34
33 33 33 32 32 33 33 33 33 33 31 30 30 30 31 31 30 30 31 31 32 32 31 31 31 32 31 31 31 32 31 30 29 30 30 31 32 33
33 33 32 32 32 32 33 32 32 32 31 30 30 30 31 31 31 31 31 31 30 30 29 29 30 30 30 31 31 30 29 29 29 29 29 30 31 33
33 32 32 32 32 32 32 31 31 31 31 30 30 30 31 31 30 30 30 30 29 28 27 28 29 30 30 30 29 29 28 28 27 28 29 31 31 32
32 31 31 31 31 31 30 30 30 30 30 30 30 30 30 29 29 29 28 28 28 28 28 29 29 29 29 29 29 28 27 27 26 27 29 30 30 29
31 31 31 30 30 30 30 29 29 30 30 30 29 29 28 28 27 27 27 27 27 27 28 28 28 28 28 28 27 26 26 26 27 28 29 29 28 27
31 31 30 31 31 30 29 29 29 29 29 29 28 28 27 27 26 26 26 26 26 26 27 27 27 27 28 27 27 26 27 27 27 28 28 28 27 26
30 30 30 30 30 30 29 29 29 29 29 28 27 27 27 27 26 25 26 26 26 26 26 26 27 27 26 26 27 27 27 27 27 28 28 27 26 26
30 30 29 29 29 29 30 30 30 29 29 28 27 27 27 26 25 25 25 26 27 26 26 26 26 26 26 26 26 26 27 27 27 27 27 26 26 27
30 30 29 29 29 30 30 30 29 28 28 28 27 27 27 26 25 25 25 26 26 25 25 26 26 26 25 26 26 26 27 27 27 27 26 25 25 26
30 30 29 29 29 29 29 29 29 29 28 28 27 26 26 25 25 24 24 25 25 25 25 26 26 25 25 25 25 27 28 28 28 28 26 26 26 26
31 30 30 29 29 29 29 29 29 29 28 27 27 27 26 25 25 24 24 24 24 24 25 25 25 25 25 25 26 27 28 28 27 27 26 26 26 25
30 30 29 29 29 28 28 27 27 26 26 26 26 26 25 25 24 24 23 24 24 23 24 25 25 25 25 25 26 27 28 28 28 27 26 26 25 23
29 28 28 28 28 28 27 26 25 24 24 24 23 23 24 24 23 23 23 23 23 23 24 25 25 25 25 25 26 26 28 28 28 27 26 25 23 22
29 28 27 27 27 26 26 25 24 23 23 23 22 23 23 23 22 22 22 22 22 23 23 24 25 25 24 25 25 26 27 27 27 26 25 23 21 21
28 27 26 25 25 25 24 24 24 24 23 23 23 23 22 22 21 21 21 21 22 22 23 24 24 24 23 24 25 26 27 26 26 25 24 21 20 20
29 28 27 25 24 24 24 23 23 23 23 23 23 22 22 22 22 21 21 21 22 22 23 23 23 23 23 24 25 25 26 26 26 25 23 21 21 21
28 27 27 26 25 25 24 23 24 24 24 23 23 22 22 22 21 21 21 21 21 21 22 22 22 22 24 24 25 25 26 27 26 24 21 20 20 19
27 26 26 26 26 25 24 23 23 24 24 23 23 22 21 21 20 20 20 20 20 20 21 21 21 22 23 23 25 25 27 27 25 23 20 20 19 19
28 27 26 26 25 25 25 24 24 24 24 23 22 21 20 20 19 19 19 19 20 20 20 21 22 22 22 23 24 26 27 26 23 21 20 19 19 19
27 27 26 25 25 25 24 24 23 22 22 21 20 20 19 19 19 19 19 19 19 19 20 21 21 22 22 23 25 25 26 25 23 21 19 18 17 17
25 25 25 24 24 24 23 23 22 21 21 21 20 20 20 20 19 19 19 20 19 19 20 21 21 21 22 23 24 25 24 23 22 20 19 17 16 15
24 24 24 24 24 23 22 22 22 22 21 21 20 20 20 20 20 20 20 19 19 20 20 20 20 21 22 23 24 24 22 21 20 19 17 15 14 13
Wind_Direction
289 290 292 294 296 296 297 299 301 302 304 304 303 304 304 305 304 303 303 302 303 304 303 302 303 303 301 302 302 301 300 297 295 291 290 288 288 287
289 291 292 294 295 296 296 297 300 302 305 305 304 304 305 305 304 304 303 304 305 305 304 304 303 303 303 303 304 302 301 299 296 294 293 292 291 289
288 290 292 293 295 296 297 298 299 301 303 305 305 305 306 305 304 304 305 306 307 307 307 306 305 304 304 305 306 303 301 300 296 295 294 293 293 293
288 290 292 293 295 296 298 299 300 301 302 303 303 304 306 305 305 306 306 307 308 309 309 308 308 307 307 307 308 307 304 301 298 296 297 297 296 295
287 289 291 294 295 297 298 300 301 301 302 302 303 303 305 306 306 307 308 308 308 309 310 310 310 310 310 309 310 309 307 305 303 303 304 303 300 297
286 288 291 292 295 296 297 298 300 301 301 302 303 303 304 305 307 308 308 308 308 310 311 312 313 311 311 309 310 310 309 308 307 307 307 305 302 299
285 288 290 291 294 295 295 296 298 300 301 301 302 302 303 305 305 307 308 308 310 312 312 312 313 313 312 311 312 311 312 311 309 308 308 307 304 301
285 286 288 291 292 292 294 296 297 298 300 300 301 301 303 304 305 306 308 309 311 313 314 316 317 317 315 314 314 315 315 312 311 310 309 307 304 303
282 284 286 289 291 292 294 295 297 297 298 299 299 299 302 302 302 304 308 311 313 314 316 318 318 318 317 317 316 316 316 314 312 312 312 310 308 307
281 282 284 286 288 291 293 295 296 297 297 298 299 299 299 300 302 304 307 311 314 315 317 319 319 318 317 317 317 317 317 316 315 313 313 311 310 310
279 280 282 284 287 289 291 293 294 295 296 298 299 299 299 300 300 302 306 309 312 314 315 317 318 319 318 317 317 318 318 317 316 316 314 312 313 313
276 278 281 283 285 288 290 291 292 293 293 295 296 297 298 298 299 301 304 308 310 313 315 316 318 319 320 319 318 318 319 319 318 318 317 316 317 316
275 276 279 281 283 287 290 291 292 292 292 293 293 295 296 296 296 299 303 306 309 311 316 319 321 321 320 321 321 321 322 323 322 321 320 320 319 317
273 274 277 280 282 284 287 290 291 291 293 293 294 296 296 295 295 298 302 305 307 310 315 320 322 322 322 322 323 324 325 324 323 322 321 320 319 318
270 272 275 278 280 282 285 286 288 290 293 294 295 296 296 296 295 297 300 303 306 309 314 318 321 323 323 323 324 325 326 325 324 322 322 320 320 322
269 271 274 277 279 281 282 284 286 288 290 291 292 293 294 293 293 294 297 300 303 307 312 316 319 321 323 325 326 327 328 327 325 324 324 323 323 322
268 271 272 274 277 280 281 283 284 286 288 289 290 290 292 292 292 292 295 298 302 306 310 314 317 320 323 325 327 328 330 329 327 325 324 324 325 324
268 270 271 272 274 276 279 281 283 284 286 286 287 288 290 292 292 291 294 298 302 306 310 313 317 320 323 326 327 328 329 329 328 327 325 324 324 324
267 268 270 271 273 275 277 280 282 284 283 284 284 285 287 290 290 291 294 298 303 307 309 311 316 320 321 323 326 328 329 329 329 327 325 324 324 325
265 267 269 271 273 275 276 278 281 282 281 281 280 281 285 288 290 290 294 298 302 305 308 311 314 317 319 322 325 327 328 328 327 325 324 324 325 328
263 266 267 268 269 272 274 277 280 280 278 278 279 280 284 287 289 290 294 298 300 303 306 309 312 315 319 323 325 327 328 328 326 324 324 325 327 329
261 263 264 265 266 269 272 275 276 276 276 276 278 280 282 284 287 290 294 297 298 301 304 306 309 314 318 321 324 327 328 328 326 326 326 327 330 333
259 262 263 263 264 266 270 273 272 272 273 273 275 277 279 282 286 290 292 295 297 300 303 305 308 312 315 319 323 326 328 327 327 328 328 331 336 339